EST,Max TemperatureF,Mean TemperatureF,Min TemperatureF,Max Dew PointF,MeanDew PointF,Min DewpointF,Max Humidity, Mean Humidity, Min Humidity, Max Sea Level PressureIn, Mean Sea Level PressureIn, Min Sea Level PressureIn, Max VisibilityMiles, Mean VisibilityMiles, Min VisibilityMiles, Max Wind SpeedMPH, Mean Wind SpeedMPH, Max Gust SpeedMPH,PrecipitationIn, CloudCover, Events, WindDirDegrees
2012-12-1,60,48,35,48,41,34,100,83,60,30.25,30.18,30.05,10,5,0,16,6,26,0.00,7,Fog,119
2012-12-2,57,52,48,55,52,46,100,89,72,30.12,30.02,29.96,10,6,0,18,10,25,0.25,8,Fog-Rain,217
2012-12-3,64,57,50,61,56,48,100,91,78,30.12,30.06,29.96,10,4,0,16,5,23,0.02,6,Fog-Rain,177
2012-12-4,61,51,41,55,45,34,93,81,72,30.18,30.04,29.95,10,10,5,15,9,23,0.11,6,Rain,243
2012-12-5,41,34,25,32,24,20,81,67,52,30.44,30.36,30.19,10,10,10,15,6,,0.00,0,,357
2012-12-6,41,33,25,33,26,20,86,75,67,30.34,30.17,29.99,10,10,10,8,4,,0.00,0,,140
2012-12-7,46,42,37,43,41,33,96,90,79,29.99,29.93,29.86,10,4,2,7,2,,0.09,8,Rain,104
2012-12-8,45,40,35,43,39,30,100,92,81,30.16,29.94,29.81,10,5,0,13,5,,0.03,7,Fog-Rain,20
2012-12-9,41,38,35,41,36,32,100,91,79,30.16,29.89,29.65,10,5,0,15,8,22,0.18,8,Fog-Rain,84
2012-12-10,44,38,33,43,34,30,100,85,73,29.91,29.73,29.66,10,7,0,10,5,16,0.00,7,Fog-Rain,259
2012-12-11,35,32,28,30,25,20,88,75,59,30.23,30.06,29.91,10,10,7,15,5,21,0.00,6,Snow,228
2012-12-12,42,32,23,26,23,19,88,73,49,30.41,30.35,30.23,10,10,8,10,6,,0.00,0,,199
2012-12-13,44,34,24,27,24,20,85,71,49,30.42,30.34,30.22,10,10,7,12,4,17,0.00,0,,195
2012-12-14,48,37,26,30,27,22,89,71,50,30.29,30.23,30.18,10,10,10,7,3,,0.00,0,,203
2012-12-15,50,41,32,46,36,28,88,79,60,30.16,29.93,29.70,10,10,7,15,4,21,0.06,6,Rain,152
2012-12-16,54,48,42,49,46,37,92,82,71,29.73,29.67,29.62,10,10,8,15,10,23,0.00,8,,220
2012-12-17,43,40,36,37,35,33,89,80,76,29.76,29.70,29.63,10,9,4,8,4,,0.09,8,Rain,339
2012-12-18,41,37,33,35,33,29,96,84,70,29.84,29.74,29.66,10,7,4,10,5,,0.04,7,Rain-Snow,245
2012-12-19,44,40,37,37,34,32,93,82,65,30.12,29.97,29.73,10,8,5,13,2,,0.00,7,,346
2012-12-20,51,42,33,47,37,30,93,85,73,29.99,29.39,29.17,10,6,2,36,13,55,0.70,8,Rain-Snow,156
2012-12-21,37,35,33,34,29,22,93,78,61,29.99,29.55,29.18,10,7,1,29,15,41,0.02,8,Rain-Snow,298
2012-12-22,36,30,23,25,22,19,85,67,56,30.17,30.10,30.01,10,10,10,21,11,30,0.00,4,,269
2012-12-23,39,29,19,27,21,15,92,76,60,30.06,29.99,29.94,10,9,7,7,1,,0.00,0,,7
2012-12-24,34,30,25,30,26,20,93,83,72,30.03,29.90,29.79,10,7,2,13,5,,0.03,6,Rain-Snow,40
2012-12-25,35,30,26,27,25,22,86,77,67,30.28,30.20,30.02,10,10,10,13,7,22,0.00,6,,17
2012-12-26,30,28,26,27,25,21,88,82,72,30.19,29.87,29.76,10,4,0,26,18,38,0.03,8,Fog-Snow,24
2012-12-27,30,27,23,23,21,19,92,78,69,30.20,30.10,29.93,10,10,7,16,10,,0.00,7,,315
2012-12-28,30,24,17,26,22,13,93,85,72,30.20,30.08,29.90,10,6,0,8,2,,0.02,6,Fog-Snow,108
2012-12-29,30,28,26,27,26,22,93,87,80,30.14,29.90,29.80,8,3,1,8,4,,0.16,8,Snow,353
2012-12-30,28,22,16,24,17,11,85,79,68,30.40,30.32,30.17,10,9,7,13,8,20,0.00,4,,226
2012-12-31,35,28,21,30,25,16,93,81,64,30.25,30.07,30.00,10,7,1,16,10,25,0.01,6,Snow,228